Location: Shepherdstown, WV
(39.4326°N, 77.8042°W)
Time: 17:55:28
(UTC-04:00)

STARLINK-2740 - Pass Details

Date: 19 June 2021
Orbit: 348 x 351 km, 53.0° (Epoch: 26 July)

Event Time Altitude Azimuth Distance (km) Brightness Sun altitude
Exits shadow 04:57:04 - 178° (S) 2,005 6.1 -8.2°
Reaches altitude 10° 05:00:25 10° 131° (SE) 1,309 5.7 -7.7°
Maximum altitude 05:00:37 10° 127° (SE) 1,306 5.7 -7.7°
Drops below altitude 10° 05:00:49 10° 123° (ESE) 1,309 5.8 -7.6°
Sets 05:04:36 0° 73° (ENE) 2,160 8.2 -7.1°
